sat.trackr.live / text

‹ back to catalog

STARLINK-33859

NORAD 63640 · 2025-083G

PAYLOAD ACTIVE UNKNOWN

§ Identity

Operator
Country
US
Launch date
2025-04-25
Launch site
AFETR
Launch vehicle
Mass (kg)
RCS (m²)

Purposes: comms

External: N2YO · Heavens-Above · Gunter

§ Orbital elements

Epoch: 2026-05-25T03:13:15.292128Z

Period
94.27 min
Inclination
42.9993°
Eccentricity
0.0001198
Mean motion
15.27591646 rev/d
Perigee alt
482.2 km
Apogee alt
483.8 km
Semi-major
6,861.2 km
B*
3.8583e-4
RAAN
293.8783°
Arg perigee
268.1518°
Mean anomaly
91.9196°
Rev number
6,175

§ Raw data

STARLINK-338591 63640U 25083G   26145.13420477  .00010374  00000+0  38583-3 0  99972 63640  42.9993 293.8783 0001198 268.1518  91.9196 15.27591646 61757

JSON: /api/v1/satellites/63640 · /tle

For live sub-satellite position, see the globe view (requires WebGL).

§ Visibility from observer

Set your observer location to see the next 7 days of passes ≥ 10°. The values pass through the URL so the page stays shareable.

No JS? Fill the form by hand. The geolocation button needs JavaScript.